RH
14 13 13 12 11 10 9 9 8 8 7 6 5 5 5 6 6 7 8 9 9 9 10 14 22 33 36 34 29 34 27 21 24 31 39 40 31 31 32 33 34 28 30 34 40
15 14 13 12 11 10 10 9 8 8 7 6 6 5 5 5 4 5 6 6 7 8 10 16 24 29 35 35 32 35 24 22 21 27 36 38 35 42 34 28 29 30 29 32 36
15 14 13 12 11 10 10 9 9 8 7 7 6 5 5 5 5 6 5 4 5 6 12 17 25 30 36 34 30 30 24 21 17 22 34 38 44 49 51 40 30 31 34 36 38
15 14 13 12 11 10 10 10 9 9 7 7 7 6 6 5 15 12 5 4 4 5 10 14 22 28 33 30 31 27 20 20 17 19 34 38 41 42 41 46 33 34 35 38 39
15 14 13 12 11 10 10 10 9 9 8 8 7 7 6 7 12 6 5 4 4 6 8 13 20 28 31 27 25 24 21 20 17 17 35 31 39 38 36 29 32 34 36 40 45
14 14 13 12 11 9 9 10 10 10 9 8 7 7 8 12 11 6 5 4 5 7 8 13 19 27 29 28 28 19 18 17 18 19 26 38 33 33 33 34 31 31 34 42 44
13 13 13 12 11 10 9 10 10 11 10 8 7 8 12 14 10 6 5 5 6 7 9 11 19 24 22 22 19 18 23 17 18 24 28 36 41 42 32 34 32 33 34 39 42
12 12 12 12 11 10 9 10 11 11 9 8 7 8 13 10 9 6 5 5 6 8 9 13 19 22 24 22 18 21 23 17 17 25 23 40 48 40 32 37 36 36 34 34 38
12 11 11 12 11 10 8 9 11 12 10 9 8 10 12 9 9 6 6 6 6 7 9 13 15 20 20 22 24 20 19 21 19 23 22 37 48 40 36 41 40 38 37 33 36
12 11 11 11 11 10 9 9 12 12 12 10 9 13 12 11 11 7 7 7 7 7 9 10 13 18 20 26 21 18 20 18 18 19 22 26 43 38 39 47 41 42 38 38 34
12 11 10 10 11 11 9 11 15 16 14 12 11 10 14 13 11 8 8 7 7 8 9 10 12 15 23 23 21 20 17 17 19 19 21 23 35 38 39 52 44 43 37 37 40
13 11 10 10 11 11 10 14 16 16 14 13 13 9 14 12 10 9 8 7 7 8 10 12 12 14 20 21 20 22 19 19 19 20 20 21 21 41 36 48 49 41 40 42 45
13 12 10 10 10 11 13 12 13 13 12 12 12 11 11 12 11 9 8 9 8 9 11 14 13 13 13 13 14 20 21 22 21 20 20 21 22 28 36 36 52 49 43 45 44
13 13 11 9 10 13 12 14 14 14 13 11 12 11 11 13 12 10 9 11 11 12 13 13 16 14 12 14 17 21 21 23 21 22 21 20 22 26 34 38 34 50 50 45 48
13 13 12 10 10 11 14 15 15 16 16 10 11 10 10 12 12 12 10 12 14 13 14 13 16 13 13 17 19 22 23 20 21 22 22 26 22 22 32 38 38 38 50 53 49
14 13 12 12 11 10 12 16 18 18 15 15 14 10 11 12 14 14 12 12 13 14 14 19 17 13 14 17 18 24 22 20 21 19 19 20 22 19 28 30 30 38 45 49 46
13 13 12 11 13 13 13 18 20 20 13 15 13 10 10 12 13 14 13 12 14 16 16 16 14 13 15 21 18 19 20 24 23 20 19 20 22 21 19 25 29 30 39 53 51
14 13 13 11 12 11 13 20 25 18 19 16 15 11 10 12 13 14 14 14 14 13 16 16 16 14 13 16 17 16 20 20 26 21 22 25 24 18 20 20 18 18 20 41 52
17 14 15 13 11 13 14 18 20 19 18 21 18 14 12 14 14 15 13 12 13 13 15 19 19 16 15 15 21 20 21 20 21 22 23 22 25 20 16 15 21 23 20 21 41
21 19 15 17 14 13 15 12 16 20 22 20 20 16 15 13 15 15 15 13 15 12 14 21 21 19 18 17 20 23 23 21 21 24 26 20 23 24 26 24 23 22 23 29 39
30 24 21 18 16 13 13 10 12 23 29 23 19 24 19 18 19 19 15 15 15 15 14 18 21 22 20 16 17 16 20 23 21 22 21 23 22 26 26 21 21 20 24 30 40
31 32 26 21 18 13 12 12 12 15 25 22 21 22 28 21 20 22 21 16 15 15 15 14 19 24 23 19 15 20 20 20 21 26 25 22 24 28 29 24 19 24 22 22 31
26 35 32 27 18 14 13 13 13 15 18 21 18 18 23 28 25 23 21 20 19 15 16 16 17 20 26 24 19 19 23 21 22 25 27 31 27 30 31 29 24 20 24 24 23
27 29 35 33 25 21 19 14 13 13 17 18 19 20 21 24 26 28 22 21 22 15 17 18 18 18 20 26 24 19 18 24 24 27 26 28 27 32 33 31 26 24 23 24 25
29 29 44 45 32 22 23 22 16 16 15 17 18 20 22 26 26 29 28 24 22 18 18 17 19 19 18 22 23 22 24 23 25 26 27 26 25 28 40 41 30 23 23 24 24
35 41 41 48 50 38 27 27 21 17 17 16 16 17 20 26 33 33 30 28 26 22 19 20 23 21 24 22 22 22 23 24 23 24 25 25 25 28 35 37 25 23 24 24 22
46 36 34 31 41 44 38 34 25 25 20 20 22 20 18 20 30 38 34 30 33 28 23 23 22 26 29 28 25 27 24 22 21 22 25 28 28 31 38 30 24 24 26 23 21